• în România
  • Lista ţărilor
  • Pe 7 zile
  • Temperatura apei
  • Hartă satelitară
  • Meteo pe hartă
  • Widget-uri
  • user-avatar
    Intrare

    Meteo pe oră la Córdoba

    Astăzi, 23 Iunie, Vineri

    Timp Temperatura Precipitaţii Vânt Presiune Umiditate
    00:00 +17°C° 0 mm 3 m/s 718 mmHg 74%
    01:00 +16°C° 0 mm 3 m/s 718 mmHg 75%
    02:00 +16°C° 0 mm 3 m/s 718 mmHg 76%
    03:00 +16°C° 0 mm 3 m/s 718 mmHg 78%
    04:00 +14°C° 0 mm 3 m/s 718 mmHg 79%
    05:00 +14°C° 0 mm 3 m/s 718 mmHg 81%
    06:00 +14°C° 0 mm 3 m/s 719 mmHg 81%
    07:00 +14°C° 0 mm 3 m/s 719 mmHg 82%
    08:00 +15°C° 0 mm 2 m/s 720 mmHg 82%
    09:00 +17°C° 0 mm 2 m/s 720 mmHg 72%
    10:00 +20°C° 0 mm 2 m/s 721 mmHg 62%
    11:00 +23°C° 0 mm 2 m/s 721 mmHg 51%
    12:00 +24°C° 0 mm 2 m/s 721 mmHg 49%
    13:00 +25°C° 0 mm 2 m/s 721 mmHg 46%
    14:00 +26°C° 0 mm 3 m/s 720 mmHg 43%
    15:00 +25°C° 0 mm 3 m/s 721 mmHg 49%
    16:00 +22°C° 0 mm 3 m/s 721 mmHg 55%
    17:00 +21°C° 0 mm 2 m/s 721 mmHg 60%
    18:00 +20°C° 0 mm 3 m/s 721 mmHg 66%
    19:00 +19°C° 0 mm 3 m/s 722 mmHg 71%
    20:00 +17°C° 0 mm 3 m/s 722 mmHg 76%
    21:00 +17°C° 0 mm 3 m/s 722 mmHg 78%
    22:00 +16°C° 0 mm 3 m/s 722 mmHg 81%
    23:00 +16°C° 0 mm 3 m/s 723 mmHg 83%

    Mâine, 24 Iunie, Sâmbătă

    Timp Temperatura Precipitaţii Vânt Presiune Umiditate
    00:00 +14°C° 0 mm 3 m/s 723 mmHg 84%
    01:00 +14°C° 0 mm 3 m/s 723 mmHg 85%
    02:00 +15°C° 0 mm 2 m/s 722 mmHg 87%
    03:00 +14°C° 0 mm 2 m/s 722 mmHg 88%
    04:00 +14°C° 0 mm 2 m/s 722 mmHg 89%
    05:00 +14°C° 0 mm 2 m/s 722 mmHg 91%
    06:00 +13°C° 0 mm 2 m/s 723 mmHg 91%
    07:00 +13°C° 0 mm 2 m/s 723 mmHg 92%
    08:00 +13°C° 0 mm 2 m/s 723 mmHg 92%
    09:00 +15°C° 0 mm 2 m/s 723 mmHg 84%
    10:00 +17°C° 0 mm 2 m/s 724 mmHg 76%
    11:00 +19°C° 0 mm 2 m/s 724 mmHg 68%
    12:00 +21°C° 0 mm 3 m/s 723 mmHg 63%
    13:00 +22°C° 0 mm 3 m/s 722 mmHg 59%
    14:00 +25°C° 0 mm 4 m/s 722 mmHg 54%
    15:00 +23°C° 0 mm 4 m/s 722 mmHg 58%
    16:00 +22°C° 0 mm 4 m/s 721 mmHg 62%
    17:00 +21°C° 0 mm 4 m/s 721 mmHg 66%
    18:00 +20°C° 0 mm 3 m/s 721 mmHg 72%
    19:00 +19°C° 0 mm 3 m/s 721 mmHg 77%
    20:00 +18°C° 0 mm 2 m/s 721 mmHg 83%
    21:00 +18°C° 0 mm 3 m/s 721 mmHg 83%
    22:00 +18°C° 0 mm 3 m/s 721 mmHg 83%
    23:00 +18°C° 0 mm 4 m/s 722 mmHg 83%

    Poimâine, 25 Iunie, Duminică

    Timp Temperatura Precipitaţii Vânt Presiune Umiditate
    00:00 +18°C° 0 mm 4 m/s 721 mmHg 84%
    01:00 +18°C° 0 mm 4 m/s 721 mmHg 86%
    02:00 +16°C° 0 mm 5 m/s 721 mmHg 87%
    03:00 +16°C° 0 mm 5 m/s 720 mmHg 89%
    04:00 +16°C° 0 mm 5 m/s 720 mmHg 90%
    05:00 +16°C° 0 mm 5 m/s 720 mmHg 91%
    06:00 +16°C° 0 mm 5 m/s 720 mmHg 90%
    07:00 +16°C° 0 mm 5 m/s 720 mmHg 90%
    08:00 +16°C° 0 mm 5 m/s 721 mmHg 90%
    09:00 +20°C° 0 mm 7 m/s 721 mmHg 78%
    10:00 +22°C° 0 mm 9 m/s 721 mmHg 66%
    11:00 +26°C° 0 mm 11 m/s 721 mmHg 54%
    12:00 +27°C° 0 mm 11 m/s 720 mmHg 51%
    13:00 +28°C° 0 mm 10 m/s 720 mmHg 48%
    14:00 +29°C° 0 mm 10 m/s 719 mmHg 45%
    15:00 +28°C° 0 mm 9 m/s 719 mmHg 47%
    16:00 +27°C° 0 mm 7 m/s 719 mmHg 50%
    17:00 +26°C° 0 mm 6 m/s 719 mmHg 53%
    18:00 +24°C° 0 mm 6 m/s 719 mmHg 56%
    19:00 +23°C° 0 mm 6 m/s 719 mmHg 60%
    20:00 +22°C° 0 mm 6 m/s 720 mmHg 63%
    21:00 +22°C° 0 mm 6 m/s 720 mmHg 67%
    22:00 +21°C° 0 mm 5 m/s 720 mmHg 70%
    23:00 +20°C° 0 mm 5 m/s 720 mmHg 74%

    26 Iunie, Luni

    Timp Temperatura Precipitaţii Vânt Presiune Umiditate
    00:00 +20°C° 0 mm 5 m/s 720 mmHg 77%
    01:00 +19°C° 0 mm 5 m/s 719 mmHg 79%
    02:00 +19°C° 0 mm 5 m/s 719 mmHg 82%
    03:00 +19°C° 0 mm 4 m/s 719 mmHg 83%
    04:00 +18°C° 0 mm 4 m/s 719 mmHg 85%
    05:00 +18°C° 0 mm 4 m/s 719 mmHg 86%
    06:00 +18°C° 0 mm 3 m/s 719 mmHg 86%
    07:00 +18°C° 0 mm 3 m/s 719 mmHg 85%
    08:00 +18°C° 0 mm 3 m/s 719 mmHg 84%
    09:00 +20°C° 0 mm 4 m/s 719 mmHg 74%
    10:00 +22°C° 0 mm 6 m/s 720 mmHg 63%
    11:00 +24°C° 0 mm 7 m/s 720 mmHg 53%
    12:00 +26°C° 0 mm 6 m/s 719 mmHg 52%
    13:00 +26°C° 0 mm 6 m/s 719 mmHg 51%
    14:00 +26°C° 0 mm 5 m/s 718 mmHg 50%
    15:00 +25°C° 0 mm 4 m/s 718 mmHg 54%
    16:00 +24°C° 0 mm 3 m/s 718 mmHg 58%
    17:00 +22°C° 0 mm 3 m/s 718 mmHg 62%
    18:00 +23°C° 0,7 mm 2 m/s 718 mmHg 66%
    19:00 +21°C° 0,7 mm 2 m/s 719 mmHg 71%
    20:00 +21°C° 0,7 mm 1 m/s 719 mmHg 75%
    21:00 +20°C° 1,6 mm 2 m/s 719 mmHg 77%
    22:00 +20°C° 1,6 mm 2 m/s 720 mmHg 78%
    23:00 +20°C° 1,6 mm 2 m/s 720 mmHg 80%

    27 Iunie, Marţi

    Timp Temperatura Precipitaţii Vânt Presiune Umiditate
    00:00 +19°C° 1,9 mm 3 m/s 720 mmHg 83%
    01:00 +19°C° 1,9 mm 3 m/s 720 mmHg 86%
    02:00 +18°C° 1,9 mm 4 m/s 721 mmHg 90%
    03:00 +18°C° 0,9 mm 4 m/s 721 mmHg 90%
    04:00 +17°C° 0,9 mm 4 m/s 721 mmHg 91%
    05:00 +17°C° 0,9 mm 3 m/s 722 mmHg 91%
    06:00 +17°C° 0,3 mm 3 m/s 722 mmHg 91%
    07:00 +16°C° 0,3 mm 3 m/s 723 mmHg 91%
    08:00 +16°C° 0,3 mm 2 m/s 724 mmHg 92%
    09:00 +17°C° 0 mm 2 m/s 724 mmHg 86%
    10:00 +18°C° 0 mm 3 m/s 725 mmHg 80%
    11:00 +18°C° 0 mm 3 m/s 725 mmHg 74%
    12:00 +19°C° 0 mm 3 m/s 725 mmHg 70%
    13:00 +19°C° 0 mm 4 m/s 725 mmHg 66%
    14:00 +20°C° 0 mm 4 m/s 724 mmHg 63%
    15:00 +19°C° 0 mm 4 m/s 725 mmHg 65%
    16:00 +16°C° 0 mm 5 m/s 725 mmHg 68%
    17:00 +15°C° 0 mm 5 m/s 726 mmHg 70%
    18:00 +14°C° 0 mm 5 m/s 726 mmHg 72%
    19:00 +13°C° 0 mm 4 m/s 727 mmHg 74%
    20:00 +13°C° 0 mm 4 m/s 728 mmHg 76%
    21:00 +12°C° 0 mm 3 m/s 728 mmHg 79%
    22:00 +11°C° 0 mm 3 m/s 728 mmHg 81%
    23:00 +12°C° 0 mm 2 m/s 728 mmHg 83%

    28 Iunie, Miercuri

    Timp Temperatura Precipitaţii Vânt Presiune Umiditate
    00:00 +10°C° 0 mm 2 m/s 728 mmHg 84%
    01:00 +10°C° 0 mm 2 m/s 728 mmHg 86%
    02:00 +9°C° 0 mm 2 m/s 728 mmHg 87%
    03:00 +9°C° 0 mm 2 m/s 728 mmHg 88%
    04:00 +9°C° 0 mm 2 m/s 728 mmHg 89%
    05:00 +9°C° 0 mm 1 m/s 728 mmHg 90%
    06:00 +9°C° 0 mm 1 m/s 728 mmHg 89%
    07:00 +10°C° 0 mm 1 m/s 728 mmHg 88%
    08:00 +10°C° 0 mm 1 m/s 729 mmHg 87%
    09:00 +11°C° 0 mm 1 m/s 729 mmHg 78%
    10:00 +13°C° 0 mm 1 m/s 729 mmHg 69%
    11:00 +15°C° 0 mm 1 m/s 729 mmHg 60%
    12:00 +16°C° 0 mm 2 m/s 729 mmHg 56%
    13:00 +16°C° 0 mm 2 m/s 728 mmHg 53%
    14:00 +17°C° 0 mm 2 m/s 728 mmHg 49%
    15:00 +16°C° 0 mm 2 m/s 728 mmHg 52%
    16:00 +16°C° 0 mm 2 m/s 728 mmHg 55%
    17:00 +15°C° 0 mm 1 m/s 727 mmHg 58%
    18:00 +14°C° 0 mm 1 m/s 728 mmHg 63%
    19:00 +13°C° 0 mm 1 m/s 728 mmHg 67%
    20:00 +12°C° 0 mm 1 m/s 728 mmHg 71%
    21:00 +11°C° 0 mm 1 m/s 728 mmHg 73%
    22:00 +11°C° 0 mm 1 m/s 728 mmHg 75%
    23:00 +11°C° 0 mm 1 m/s 728 mmHg 77%
    Arată mai mult